This is the latest recevied weather packets stored in our database for station/object KC5AV. If no packets are shown the sender has not sent any weather packets the latest 10 day(s).
| Time | Temp. | Humidity | Pressure | Rain* | Wind** | Luminosity | Snow |
|---|---|---|---|---|---|---|---|
| 1778016102 | 28.89° C | 66% | 1006.9 hPa | 0 mm | - | 432 W/m² | - |
| 1778015799 | 28.89° C | 67% | 1007 hPa | 0 mm | - | 401 W/m² | - |
| 1778015496 | 29.44° C | 66% | 1006.6 hPa | 0 mm | - | 240 W/m² | - |
| 1778015193 | 28.89° C | 68% | 1006.5 hPa | 0 mm | - | 485 W/m² | - |
| 1778014889 | 28.89° C | 68% | 1006.9 hPa | 0 mm | - | 311 W/m² | - |
| 1778014587 | 28.89° C | 69% | 1006.9 hPa | 0 mm | - | 270 W/m² | - |
| 1778014285 | 29.44° C | 67% | 1007.1 hPa | 0 mm | - | 230 W/m² | - |
| 1778013982 | 28.89° C | 70% | 1007.1 hPa | 0 mm | - | 597 W/m² | - |
| 1778013679 | 28.33° C | 70% | 1007.3 hPa | 0 mm | - | 342 W/m² | - |
| 1778013376 | 28.33° C | 70% | 1007.4 hPa | 0 mm | - | 266 W/m² | - |
| 1778013074 | 28.33° C | 69% | 1007.3 hPa | 0 mm | - | 315 W/m² | - |
| 1778012769 | 28.33° C | 70% | 1007.3 hPa | 0 mm | - | 342 W/m² | - |
| 1778012465 | 27.78° C | 69% | 1007.3 hPa | 0 mm | - | 232 W/m² | - |
| 1778012161 | 28.33° C | 69% | 1007.3 hPa | 0 mm | - | 289 W/m² | - |
| 1778011860 | 28.33° C | 70% | 1007.4 hPa | 0 mm | - | 331 W/m² | - |
| 1778011557 | 28.33° C | 68% | 1007.6 hPa | 0 mm | - | 290 W/m² | - |
| 1778011254 | 28.33° C | 70% | 1007.4 hPa | 0 mm | - | 285 W/m² | - |
| 1778010950 | 28.33° C | 68% | 1007.4 hPa | 0 mm | - | 316 W/m² | - |
| 1778010648 | 28.33° C | 69% | 1007.4 hPa | 0 mm | - | 380 W/m² | - |
| 1778010345 | 28.33° C | 69% | 1007.4 hPa | 0 mm | - | 688 W/m² | - |
| 1778010040 | 28.33° C | 68% | 1007.4 hPa | 0 mm | - | 453 W/m² | - |
| 1778009737 | 28.89° C | 68% | 1007.5 hPa | 0 mm | - | 393 W/m² | - |
| 1778009434 | 28.89° C | 67% | 1007.4 hPa | 0 mm | - | 397 W/m² | - |
| 1778009133 | 28.89° C | 65% | 1007.5 hPa | 0 mm | - | 799 W/m² | - |
| 1778008830 | 28.89° C | 66% | 1007.5 hPa | 0 mm | - | 809 W/m² | - |
* Rain latest hour (hover to see other rain measurements)
** Current wind speed in m/s (hover to see current wind gust speed)